[[{"header":{"parameterUnit":"m.s-1","parameterCategory":2,"la1":30.2991,"la2":30.254,"lo1":-89.0895,"lo2":-89.0444,"dy":0.0017,"dx":0.0017,"nx":28,"ny":28,"refTime":"2025-05-30T09:00:00:Z","depth":"0","parameterNumber":2,"parameterNumberName":"U-component_of_CURRENTS"},"data":[0,0,0,0,0,0,0,0,0,0,0,0,0,0,0,0,0,0,0,0,0,0,0,0,0,0,0,0,0,0,0,0,0,0,0,0,0,0,0,0,0,0,0,0,0,0,0,0,0,0,0,0,0,0,0,0,0,0,0.2371,0.2372,0,0.2438,0.2438,0.2439,0.2446,0.2446,0.2445,0.2445,0.2563,0.2566,0.257,0,0,0,0,0,0,0,0,0,0,0,0,0,0.229,0.2291,0.2371,0.2372,0.2373,0.2438,0.2438,0.2439,0.2447,0.2446,0.2445,0.2445,0.2562,0.2566,0.257,0,0,0,0,0,0,0,0,0,0,0,0,0,0.2336,0.2291,0.2371,0.2386,0.2388,0.2438,0.2439,0.2439,0.2447,0.2446,0.2445,0.2444,0.256,0.2565,0.2571,0.2619,0,0,0.2587,0.259,0,0,0,0,0,0,0,0,0.2333,0.2339,0.2383,0.2385,0.2387,0.2435,0.2453,0.2503,0.2447,0.2423,0.2445,0.2444,0.2527,0.2535,0.2545,0.2625,0.263,0.2588,0.2591,0.2593,0.2595,0,0,0,0,0,0,0,0.233,0.2336,0.2396,0.2384,0.2387,0.2403,0.2408,0.2462,0.2477,0.2425,0.2426,0.2436,0.2528,0.254,0.2549,0.2632,0.2588,0.2592,0.2596,0.2598,0.2771,0.2772,0,0,0,0,0,0,0.2325,0.2333,0.2394,0.2398,0.236,0.2405,0.2411,0.2419,0.2476,0.2484,0.2437,0.2436,0.2531,0.2542,0.2553,0.2634,0.2593,0.2598,0.2602,0.277,0.2771,0.2773,0,0,0,0,0,0,0.2323,0.2329,0.2391,0.2368,0.2378,0.2407,0.2416,0.2421,0.2434,0.2485,0.2493,0.2446,0.2531,0.2545,0.2596,0.2638,0.2601,0.2606,0.2768,0.277,0.2772,0.2785,0,0,0,0,0,0,0.232,0.2328,0.2332,0.2368,0.2379,0.2429,0.2417,0.2422,0.2443,0.2442,0.2496,0.2506,0.2532,0.2588,0.2602,0.2645,0.261,0.2766,0.2769,0.2771,0.2783,0.2787,0.2791,0,0,0,0,0,0.2317,0.2327,0.2332,0.2339,0.2383,0.2431,0.2438,0.2455,0.2444,0.2461,0.2484,0.2504,0.2614,0.2593,0.2609,0.2655,0.2765,0.2768,0.2771,0.2781,0.2786,0.2791,0,0,0,0,0,0,0.2286,0.233,0.2336,0.2355,0.2394,0.2433,0.2449,0.2458,0.2489,0.2486,0.2519,0.2532,0.2591,0.262,0.2596,0.2711,0.2695,0.2702,0.2697,0.2703,0.2707,0.2702,0.2615,0,0,0,0,0,0.2284,0.2305,0.2349,0.2364,0.2384,0.2415,0.2435,0.245,0.2483,0.2494,0.253,0.2571,0.2618,0.2654,0.2695,0.2765,0.2787,0.2805,0.2809,0.2813,0.282,0.287,0.2879,0.2783,0.2783,0.2783,0,0,0.2273,0.2302,0.2311,0.236,0.2387,0.2435,0.2425,0.246,0.2498,0.2506,0.2561,0.2584,0.2635,0.2701,0.2733,0.2733,0.2854,0.2816,0.2819,0.2824,0.2874,0.2883,0.2892,0.2785,0.2785,0.2784,0,0,0.228,0.2293,0.2321,0.2361,0.2413,0.2442,0.2454,0.25,0.2517,0.2573,0.2583,0.2623,0.2704,0.2744,0.2776,0.2832,0.2863,0.2854,0.2889,0.2937,0.2945,0.2953,0.3,0.3011,0.2869,0.2869,0.2869,0,0.2266,0.2313,0.2337,0.2385,0.2424,0.2448,0.2499,0.2528,0.2583,0.261,0.2594,0.2694,0.2727,0.2812,0.2825,0.2843,0.2872,0.2864,0.2942,0.2949,0.2957,0.3003,0.3016,0.287,0.287,0.287,0.287,0,0.2308,0.2349,0.2371,0.2443,0.2485,0.2532,0.2583,0.262,0.2638,0.2671,0.2737,0.2764,0.2826,0.2846,0.2854,0.2934,0.2938,0.2928,0.2925,0.2967,0.3014,0.3026,0.2871,0.2871,0.2871,0.287,0,0,0.228,0.2381,0.2391,0.2437,0.2523,0.2562,0.2629,0.2705,0.2744,0.2785,0.284,0.2901,0.29,0.2934,0.2949,0.2989,0.3058,0.2983,0.2985,0.3023,0.3172,0.3278,0.3302,0.3061,0.3063,0.3065,0.3185,0,0.2313,0.2404,0.2451,0.2543,0.2599,0.2651,0.2712,0.2777,0.2817,0.2873,0.2905,0.2959,0.2942,0.2963,0.3002,0.3038,0.3092,0.3027,0.3132,0.3135,0.3219,0.3321,0.3268,0.338,0.3197,0.32,0.3201,0,0.2356,0.2413,0.2503,0.2604,0.2631,0.2685,0.2782,0.2838,0.292,0.2946,0.2999,0.3021,0.309,0.3053,0.3154,0.3113,0.315,0.3172,0.3177,0.3282,0.3267,0.3309,0.341,0.3286,0.3221,0.3219,0.3218,0,0.2349,0.2456,0.2526,0.2564,0.2675,0.2719,0.2775,0.2862,0.2906,0.2991,0.3025,0.3101,0.3134,0.3191,0.325,0.3206,0.3358,0.3303,0.3439,0.3445,0.3427,0.343,0.3416,0.3388,0.3388,0.3388,0.3387,0,0.2389,0.2445,0.2523,0.2568,0.2636,0.2715,0.2787,0.2848,0.2929,0.2995,0.3053,0.3121,0.3167,0.3259,0.3295,0.3437,0.3407,0.348,0.3502,0.3433,0.3435,0.3348,0.3306,0.3392,0.3391,0.339,0.3389,0,0.2392,0.2446,0.2522,0.2617,0.264,0.2688,0.2779,0.2829,0.291,0.2995,0.3026,0.3147,0.3291,0.3366,0.3475,0.3514,0.3549,0.3675,0.3601,0.3616,0.3629,0.3592,0.3516,0.3411,0.3843,0.3847,0.385,0,0.2413,0.2448,0.2528,0.2555,0.2599,0.2666,0.2709,0.2801,0.2856,0.3026,0.307,0.3241,0.3385,0.3613,0.3729,0.3872,0.3684,0.3879,0.3796,0.3669,0.364,0.3432,0.333,0.3761,0.3763,0.3765,0.3766,0,0.244,0.2454,0.2508,0.2548,0.2592,0.2635,0.2709,0.2744,0.287,0.2965,0.3139,0.3283,0.3561,0.3716,0.3923,0.3993,0.3718,0.3924,0.3791,0.3609,0.3379,0.3275,0.3633,0.3782,0.378,0.3779,0.3778,0.3777,0.2445,0.2468,0.2516,0.2549,0.2582,0.261,0.2629,0.272,0.2815,0.2956,0.3138,0.3327,0.3597,0.3921,0.3962,0.3988,0.3898,0.3885,0.3861,0.3665,0.3536,0.3963,0.4145,0.4145,0.4146,0.4146,0.4146,0,0.2469,0.2486,0.2514,0.2547,0.2555,0.2581,0.263,0.2639,0.2729,0.292,0.3087,0.3373,0.3597,0.376,0.3963,0.3902,0.366,0.3788,0.3422,0.3331,0.3724,0.3693,0.3785,0.3785,0.3785,0.3785,0.3785,0.3785,0.2486,0.2517,0.2516,0.2514,0.2521,0.2514,0.2523,0.2549,0.2651,0.2816,0.2967,0.3143,0.3472,0.3778,0.3796,0.3721,0.3375,0.3319,0.3214,0.3451,0.3453,0.3454,0.3408,0.344,0.3439,0.265,0.2645,0.2641]},{"header":{"parameterUnit":"m.s-1","parameterCategory":2,"la1":30.2991,"la2":30.254,"lo1":-89.0895,"lo2":-89.0444,"dy":0.0017,"dx":0.0017,"nx":28,"ny":28,"refTime":"2025-05-30T09:00:00:Z","depth":"0","parameterNumber":3,"parameterNumberName":"V-component_of_CURRENTS"},"data":[0,0,0,0,0,0,0,0,0,0,0,0,0,0,0,0,0,0,0,0,0,0,0,0,0,0,0,0,0,0,0,0,0,0,0,0,0,0,0,0,0,0,0,0,0,0,0,0,0,0,0,0,0,0,0,0,0,0,-0.0471,-0.0471,0,-0.053,-0.0531,-0.0531,-0.0572,-0.0572,-0.0572,-0.0572,-0.0657,-0.0659,-0.0661,0,0,0,0,0,0,0,0,0,0,0,0,0,-0.0455,-0.0454,-0.0471,-0.0471,-0.0472,-0.053,-0.0531,-0.0531,-0.0572,-0.0572,-0.0572,-0.0573,-0.0656,-0.0658,-0.0661,0,0,0,0,0,0,0,0,0,0,0,0,0,-0.0483,-0.0454,-0.0471,-0.0498,-0.0501,-0.0529,-0.0531,-0.0532,-0.0572,-0.0572,-0.0572,-0.0573,-0.0655,-0.0658,-0.0661,-0.0674,0,0,-0.0671,-0.0672,0,0,0,0,0,0,0,0,-0.0481,-0.0484,-0.0494,-0.0497,-0.05,-0.0543,-0.0556,-0.058,-0.0572,-0.0546,-0.0572,-0.0573,-0.062,-0.0626,-0.0638,-0.0678,-0.0681,-0.0671,-0.0673,-0.0674,-0.0675,0,0,0,0,0,0,0,-0.0479,-0.0482,-0.0495,-0.0494,-0.0498,-0.0529,-0.0533,-0.0561,-0.0582,-0.0548,-0.0551,-0.0556,-0.0622,-0.0634,-0.064,-0.0683,-0.0671,-0.0674,-0.0675,-0.0677,-0.0831,-0.0833,0,0,0,0,0,0,-0.0466,-0.048,-0.0493,-0.0497,-0.049,-0.0529,-0.0533,-0.053,-0.0581,-0.0589,-0.0556,-0.0558,-0.0629,-0.0636,-0.0643,-0.0729,-0.0674,-0.0677,-0.0679,-0.0829,-0.0832,-0.0834,0,0,0,0,0,0,-0.0466,-0.0467,-0.0491,-0.049,-0.0495,-0.0528,-0.0524,-0.0531,-0.0543,-0.0586,-0.0595,-0.0561,-0.063,-0.0639,-0.0689,-0.073,-0.0678,-0.0681,-0.0826,-0.083,-0.0833,-0.0857,0,0,0,0,0,0,-0.0465,-0.0466,-0.046,-0.0488,-0.0494,-0.0509,-0.0524,-0.0531,-0.0545,-0.0548,-0.0593,-0.0602,-0.0631,-0.0684,-0.0692,-0.0733,-0.0684,-0.0823,-0.0828,-0.0832,-0.0854,-0.0861,-0.0868,0,0,0,0,0,-0.0464,-0.0448,-0.0459,-0.0461,-0.0484,-0.0509,-0.0516,-0.0542,-0.0544,-0.0553,-0.0596,-0.06,-0.0717,-0.0688,-0.0696,-0.074,-0.0821,-0.0827,-0.0832,-0.0851,-0.086,-0.0867,0,0,0,0,0,0,-0.0423,-0.0451,-0.0464,-0.0453,-0.0482,-0.0516,-0.052,-0.0537,-0.0575,-0.0578,-0.0617,-0.063,-0.0694,-0.0712,-0.0678,-0.0801,-0.0775,-0.0782,-0.0786,-0.0795,-0.0802,-0.0783,-0.0686,0,0,0,0,0,-0.0414,-0.0416,-0.0449,-0.044,-0.0453,-0.0486,-0.0498,-0.0518,-0.0554,-0.0569,-0.0607,-0.0659,-0.0721,-0.0751,-0.0797,-0.0851,-0.0848,-0.0891,-0.0897,-0.0903,-0.0896,-0.0936,-0.0945,-0.0851,-0.0851,-0.0851,0,0,-0.0391,-0.0409,-0.0408,-0.0434,-0.0455,-0.0495,-0.0494,-0.051,-0.0556,-0.0573,-0.0638,-0.0676,-0.074,-0.0814,-0.0845,-0.0834,-0.0929,-0.0909,-0.0914,-0.0904,-0.0942,-0.0951,-0.0959,-0.0854,-0.0854,-0.0853,0,0,-0.0372,-0.0368,-0.0381,-0.0413,-0.045,-0.0481,-0.0485,-0.0527,-0.0556,-0.0617,-0.0657,-0.0714,-0.0794,-0.0857,-0.0899,-0.0968,-0.096,-0.0992,-0.1015,-0.1054,-0.1061,-0.1067,-0.1064,-0.107,-0.0999,-0.1,-0.1,0,-0.0347,-0.0375,-0.0387,-0.0424,-0.0454,-0.0478,-0.0516,-0.0555,-0.0613,-0.0642,-0.0642,-0.0773,-0.082,-0.0926,-0.0964,-0.0983,-0.0985,-0.0974,-0.106,-0.1066,-0.1072,-0.1067,-0.1073,-0.1001,-0.1001,-0.1001,-0.1001,0,-0.0363,-0.0391,-0.0397,-0.0464,-0.0493,-0.0521,-0.0581,-0.0614,-0.0646,-0.0691,-0.0774,-0.0836,-0.0907,-0.0951,-0.0983,-0.1067,-0.1047,-0.1056,-0.1028,-0.1082,-0.1075,-0.108,-0.1004,-0.1003,-0.1003,-0.1002,0,0,-0.0306,-0.0394,-0.0401,-0.0441,-0.0519,-0.0539,-0.0613,-0.0685,-0.0714,-0.0785,-0.0832,-0.0958,-0.096,-0.1008,-0.1052,-0.1099,-0.1148,-0.1097,-0.1099,-0.1075,-0.1203,-0.1105,-0.1102,-0.1171,-0.1172,-0.1174,-0.1175,0,-0.0325,-0.0395,-0.0441,-0.0513,-0.0556,-0.0606,-0.0665,-0.0728,-0.0773,-0.0819,-0.0896,-0.095,-0.0995,-0.1011,-0.1075,-0.1122,-0.1167,-0.1144,-0.1171,-0.1171,-0.1062,-0.1107,-0.099,-0.0975,-0.1181,-0.1181,-0.1182,0,-0.0351,-0.0394,-0.0464,-0.0542,-0.056,-0.0603,-0.0671,-0.0724,-0.0802,-0.083,-0.0896,-0.0933,-0.1023,-0.1034,-0.1146,-0.1126,-0.1169,-0.1204,-0.1205,-0.1106,-0.1084,-0.096,-0.0977,-0.1159,-0.1191,-0.119,-0.1189,0,-0.0328,-0.0415,-0.0466,-0.0498,-0.0586,-0.0614,-0.0651,-0.0723,-0.0738,-0.0815,-0.0806,-0.093,-0.0939,-0.1045,-0.1106,-0.1133,-0.119,-0.1235,-0.119,-0.1182,-0.1081,-0.1061,-0.1258,-0.1314,-0.1314,-0.1314,-0.1314,0,-0.0349,-0.039,-0.0451,-0.0482,-0.0504,-0.0579,-0.0597,-0.0645,-0.0686,-0.066,-0.0786,-0.0757,-0.0939,-0.0983,-0.1085,-0.1123,-0.1173,-0.1188,-0.1182,-0.1085,-0.1067,-0.1218,-0.1337,-0.1314,-0.1314,-0.1314,-0.1314,0,-0.0327,-0.0385,-0.0426,-0.049,-0.0498,-0.0504,-0.0525,-0.0518,-0.0575,-0.0533,-0.0542,-0.0624,-0.066,-0.0813,-0.0944,-0.1041,-0.1183,-0.1126,-0.0973,-0.095,-0.109,-0.1212,-0.1347,-0.142,-0.1099,-0.1097,-0.1095,0,-0.0326,-0.0348,-0.0385,-0.0364,-0.0385,-0.0396,-0.0378,-0.0447,-0.0414,-0.0407,-0.0355,-0.0396,-0.0341,-0.0505,-0.0696,-0.0848,-0.1053,-0.0877,-0.0928,-0.1079,-0.1215,-0.1302,-0.1363,-0.0807,-0.0802,-0.0799,-0.0796,0,-0.0281,-0.0289,-0.0294,-0.025,-0.0226,-0.02,-0.0176,-0.0137,-0.0162,-0.0084,0.0049,0.0095,-0.0059,-0.0133,-0.039,-0.0528,-0.0972,-0.081,-0.103,-0.1049,-0.1097,-0.1167,-0.0811,-0.0766,-0.0769,-0.0771,-0.0773,-0.0774,-0.0196,-0.0163,-0.0138,-0.009,-0.0051,0.0038,0.0115,0.0188,0.0317,0.0512,0.0467,0.0673,0.0388,0.0082,-0.0195,-0.0647,-0.0736,-0.0779,-0.0924,-0.1007,-0.1061,-0.0608,-0.0521,-0.0522,-0.0524,-0.0525,-0.0526,0,-0.0055,-0.0017,0.0034,0.0117,0.0217,0.0186,0.0299,0.0429,0.0681,0.0903,0.11,0.1175,0.0835,0.0349,-0.0287,-0.0677,-0.0884,-0.0932,-0.1083,-0.1152,-0.0788,-0.0759,-0.0642,-0.0642,-0.0641,-0.0641,-0.0641,-0.0641,0.0036,0.0134,0.0154,0.0362,0.0432,0.0597,0.0692,0.0899,0.1093,0.1496,0.1723,0.1825,0.1431,0.0181,-0.0693,-0.0931,-0.1306,-0.132,-0.1569,-0.1376,-0.1376,-0.1375,-0.1379,-0.1394,-0.1395,-0.1835,-0.184,-0.1844]}],[{"header":{"parameterUnit":"m.s-1","parameterCategory":2,"la1":30.2991,"la2":30.254,"lo1":-89.0895,"lo2":-89.0444,"dy":0.0017,"dx":0.0017,"nx":28,"ny":28,"refTime":"2025-05-30T09:00:00:Z","depth":"2","parameterNumber":2,"parameterNumberName":"U-component_of_CURRENTS"},"data":[0,0,0,0,0,0,0,0,0,0,0,0,0,0,0,0,0,0,0,0,0,0,0,0,0,0,0,0,0,0,0,0,0,0,0,0,0,0,0,0,0,0,0,0,0,0,0,0,0,0,0,0,0,0,0,0,0,0,0.1869,0.187,0,0.191,0.1911,0.1911,0.1949,0.1949,0.195,0.195,0.1957,0.1957,0.1957,0,0,0,0,0,0,0,0,0,0,0,0,0,0.1859,0.1859,0.1869,0.187,0.187,0.191,0.1911,0.1912,0.1949,0.1949,0.195,0.195,0.1957,0.1957,0.1957,0,0,0,0,0,0,0,0,0,0,0,0,0,0.1878,0.1859,0.1869,0.1894,0.1896,0.191,0.1911,0.1912,0.1949,0.1949,0.195,0.1951,0.1957,0.1957,0.1957,0.1941,0,0,0.1955,0.1955,0,0,0,0,0,0,0,0,0.1877,0.1879,0.1889,0.1892,0.1895,0.1925,0.191,0.192,0.1948,0.1929,0.195,0.1951,0.1943,0.1944,0.195,0.1941,0.1942,0.1955,0.1955,0.1955,0.1955,0,0,0,0,0,0,0,0.1876,0.1877,0.1886,0.189,0.1893,0.1915,0.1918,0.1912,0.1931,0.193,0.1933,0.1938,0.1944,0.1951,0.1951,0.1942,0.1955,0.1955,0.1955,0.1955,0.2001,0.2003,0,0,0,0,0,0,0.1868,0.1876,0.1884,0.1887,0.1887,0.1915,0.1918,0.1915,0.1932,0.1935,0.1937,0.1939,0.1951,0.1951,0.1951,0.2033,0.1955,0.1955,0.1955,0.2,0.2002,0.2003,0,0,0,0,0,0,0.1867,0.1868,0.1883,0.1883,0.1886,0.1914,0.191,0.1915,0.1932,0.1937,0.194,0.195,0.1951,0.1951,0.2023,0.203,0.1955,0.1954,0.1998,0.2001,0.2003,0.2133,0,0,0,0,0,0,0.1867,0.1867,0.1863,0.1882,0.1886,0.1913,0.191,0.1916,0.1933,0.1937,0.1948,0.1949,0.1952,0.2025,0.2023,0.2028,0.1954,0.1996,0.1999,0.2002,0.2127,0.2139,0.215,0,0,0,0,0,0.1866,0.1862,0.1862,0.1863,0.1878,0.1914,0.192,0.1941,0.1933,0.1955,0.2003,0.195,0.2037,0.2028,0.2025,0.2029,0.1995,0.1998,0.2002,0.2121,0.2137,0.215,0,0,0,0,0,0,0.1846,0.1866,0.1867,0.1865,0.1896,0.1921,0.1937,0.1942,0.1991,0.1999,0.2,0.2007,0.2064,0.2031,0.202,0.2048,0.1992,0.1995,0.2084,0.2098,0.2109,0.2095,0.1954,0,0,0,0,0,0.1839,0.1854,0.1872,0.1878,0.1889,0.191,0.1924,0.1942,0.1983,0.2003,0.2024,0.2039,0.2069,0.2078,0.2096,0.2121,0.2112,0.2109,0.2121,0.2131,0.2117,0.2148,0.2161,0.2014,0.2014,0.2014,0,0,0.1833,0.1848,0.1854,0.1878,0.1898,0.1933,0.1922,0.1954,0.2005,0.1995,0.2076,0.2089,0.209,0.2145,0.2158,0.2121,0.2179,0.2135,0.2144,0.2124,0.2153,0.2167,0.218,0.2016,0.2016,0.2015,0,0,0.186,0.1842,0.1879,0.1895,0.1933,0.1952,0.1962,0.2002,0.2043,0.213,0.2131,0.2167,0.2211,0.2216,0.2222,0.2295,0.225,0.2275,0.2313,0.2345,0.2357,0.2368,0.2425,0.244,0.2268,0.2268,0.2268,0,0.1852,0.1889,0.1896,0.1931,0.1948,0.1962,0.2004,0.2049,0.2119,0.2157,0.2178,0.2246,0.2246,0.2286,0.2322,0.2319,0.2341,0.2269,0.2362,0.2372,0.2381,0.2436,0.245,0.2275,0.2274,0.2273,0.2273,0,0.1906,0.1933,0.1951,0.2003,0.2027,0.2059,0.211,0.2162,0.2212,0.225,0.233,0.2364,0.2385,0.2387,0.239,0.2425,0.2426,0.2389,0.2332,0.2404,0.2457,0.247,0.2284,0.2282,0.228,0.2278,0,0,0.1905,0.1976,0.1985,0.2012,0.2059,0.2082,0.2174,0.225,0.2297,0.2378,0.2444,0.2502,0.2484,0.2486,0.2467,0.2491,0.2595,0.2469,0.2467,0.2534,0.2699,0.2741,0.2758,0.2584,0.2586,0.2587,0.273,0,0.1951,0.2018,0.2054,0.212,0.2149,0.2183,0.2257,0.2322,0.2396,0.2465,0.2499,0.2547,0.253,0.2536,0.2566,0.2576,0.2626,0.2561,0.2608,0.2609,0.2645,0.2772,0.2525,0.2634,0.2742,0.2744,0.2745,0,0.2003,0.2037,0.2099,0.2167,0.2182,0.2221,0.2304,0.2376,0.2468,0.2527,0.2575,0.2594,0.2636,0.2612,0.2691,0.2656,0.2688,0.2706,0.2711,0.2701,0.2674,0.2567,0.2652,0.2766,0.2764,0.2763,0.2761,0,0.1986,0.2075,0.2119,0.2129,0.2202,0.2246,0.2294,0.2383,0.2442,0.2541,0.2584,0.2646,0.2675,0.2726,0.2785,0.274,0.2894,0.2826,0.2904,0.2908,0.2677,0.2658,0.2898,0.2898,0.2897,0.2897,0.2897,0,0.1998,0.2037,0.2107,0.2108,0.2163,0.2223,0.2288,0.2358,0.2446,0.2509,0.2581,0.2643,0.2705,0.28,0.2835,0.2943,0.2942,0.2943,0.2955,0.2723,0.2707,0.2777,0.2761,0.2902,0.2901,0.29,0.2899,0,0.196,0.2011,0.2052,0.2121,0.2147,0.2172,0.226,0.2308,0.2402,0.2489,0.2518,0.2652,0.2802,0.29,0.3008,0.301,0.3097,0.3134,0.2886,0.2867,0.3073,0.3062,0.3217,0.322,0.3222,0.3224,0.3226,0,0.1945,0.196,0.2022,0.2059,0.2088,0.2141,0.2182,0.2268,0.2324,0.2499,0.2537,0.2718,0.2846,0.306,0.3106,0.3225,0.324,0.3055,0.2912,0.3114,0.311,0.3095,0.3081,0.2667,0.2664,0.2662,0.266,0,0.1921,0.194,0.1984,0.2038,0.2079,0.2115,0.2185,0.2203,0.2327,0.2417,0.2585,0.2703,0.2909,0.293,0.3094,0.3112,0.3014,0.3013,0.3282,0.2645,0.2613,0.2603,0.2604,0.2638,0.264,0.2642,0.2643,0.2644,0.1923,0.1947,0.2023,0.2064,0.2104,0.2131,0.2139,0.2209,0.229,0.238,0.2521,0.2612,0.2681,0.2816,0.2812,0.2827,0.3011,0.2862,0.2861,0.2865,0.2795,0.2772,0.2815,0.2818,0.282,0.2823,0.2825,0,0.1956,0.2017,0.2062,0.212,0.2127,0.2154,0.2185,0.2154,0.2213,0.2278,0.2376,0.2235,0.2322,0.2428,0.2409,0.2465,0.2345,0.2389,0.2175,0.2204,0.2228,0.2115,0.1959,0.1956,0.1953,0.195,0,0,0.1999,0.2067,0.2079,0.2137,0.2167,0.2132,0.2124,0.2068,0.2071,0.1994,0.1993,0.2156,0.2326,0.2056,0.208,0.2011,0.2067,0.1949,0.2654,0.2428,0.2445,0.2534,0.2401,0,0,0,0,0]},{"header":{"parameterUnit":"m.s-1","parameterCategory":2,"la1":30.2991,"la2":30.254,"lo1":-89.0895,"lo2":-89.0444,"dy":0.0017,"dx":0.0017,"nx":28,"ny":28,"refTime":"2025-05-30T09:00:00:Z","depth":"2","parameterNumber":3,"parameterNumberName":"V-component_of_CURRENTS"},"data":[0,0,0,0,0,0,0,0,0,0,0,0,0,0,0,0,0,0,0,0,0,0,0,0,0,0,0,0,0,0,0,0,0,0,0,0,0,0,0,0,0,0,0,0,0,0,0,0,0,0,0,0,0,0,0,0,0,0,-0.0244,-0.0245,0,-0.0317,-0.0318,-0.0319,-0.0383,-0.0384,-0.0384,-0.0385,-0.0469,-0.0471,-0.0472,0,0,0,0,0,0,0,0,0,0,0,0,0,-0.0218,-0.0217,-0.0244,-0.0245,-0.0246,-0.0317,-0.0318,-0.0319,-0.0383,-0.0384,-0.0385,-0.0385,-0.0468,-0.047,-0.0472,0,0,0,0,0,0,0,0,0,0,0,0,0,-0.0255,-0.0217,-0.0244,-0.0285,-0.0289,-0.0317,-0.0318,-0.032,-0.0383,-0.0384,-0.0385,-0.0386,-0.0468,-0.047,-0.0473,-0.047,0,0,-0.048,-0.0481,0,0,0,0,0,0,0,0,-0.0253,-0.0256,-0.0278,-0.0282,-0.0287,-0.0341,-0.034,-0.037,-0.0383,-0.0349,-0.0385,-0.0386,-0.0425,-0.0431,-0.0445,-0.0474,-0.0478,-0.0481,-0.0482,-0.0483,-0.0484,0,0,0,0,0,0,0,-0.025,-0.0254,-0.0275,-0.0279,-0.0284,-0.0319,-0.0325,-0.0346,-0.0383,-0.0352,-0.0356,-0.0362,-0.0428,-0.0443,-0.0448,-0.0479,-0.0481,-0.0483,-0.0484,-0.0485,-0.0595,-0.0596,0,0,0,0,0,0,-0.0234,-0.0251,-0.0272,-0.0277,-0.027,-0.0319,-0.0326,-0.0324,-0.0382,-0.0392,-0.0361,-0.0364,-0.0438,-0.0445,-0.0451,-0.0527,-0.0483,-0.0486,-0.0487,-0.0594,-0.0595,-0.0597,0,0,0,0,0,0,-0.0233,-0.0235,-0.0269,-0.0265,-0.0271,-0.0318,-0.0316,-0.0325,-0.0344,-0.0389,-0.0399,-0.0371,-0.0439,-0.0447,-0.0518,-0.0527,-0.0487,-0.0489,-0.0592,-0.0594,-0.0596,-0.063,0,0,0,0,0,0,-0.0231,-0.0234,-0.0225,-0.0263,-0.0271,-0.0291,-0.0315,-0.0325,-0.0345,-0.035,-0.04,-0.0409,-0.044,-0.0515,-0.0521,-0.053,-0.0491,-0.059,-0.0593,-0.0595,-0.0627,-0.0633,-0.0638,0,0,0,0,0,-0.023,-0.0216,-0.0224,-0.0227,-0.0258,-0.0291,-0.0298,-0.0336,-0.0344,-0.0355,-0.042,-0.0408,-0.0534,-0.0519,-0.0526,-0.0535,-0.0589,-0.0592,-0.0595,-0.0624,-0.0631,-0.0637,0,0,0,0,0,0,-0.0192,-0.0222,-0.0232,-0.0224,-0.0257,-0.0301,-0.0309,-0.033,-0.0386,-0.0394,-0.0439,-0.0454,-0.0517,-0.0523,-0.0504,-0.0575,-0.0553,-0.0557,-0.0572,-0.0579,-0.0585,-0.0539,-0.0493,0,0,0,0,0,-0.0179,-0.0183,-0.0216,-0.0212,-0.0224,-0.0263,-0.0279,-0.0305,-0.0357,-0.038,-0.0424,-0.0473,-0.0531,-0.0555,-0.0599,-0.0636,-0.062,-0.0643,-0.0648,-0.0653,-0.0621,-0.0635,-0.0638,-0.0607,-0.0607,-0.0607,0,0,-0.0162,-0.018,-0.0181,-0.0206,-0.0231,-0.0237,-0.0276,-0.0299,-0.033,-0.0379,-0.044,-0.0495,-0.0549,-0.0613,-0.0636,-0.0619,-0.0659,-0.0657,-0.066,-0.0625,-0.0638,-0.0641,-0.0643,-0.0609,-0.0609,-0.0609,0,0,-0.0157,-0.0147,-0.0164,-0.0168,-0.0203,-0.0222,-0.0224,-0.0274,-0.0328,-0.0408,-0.0449,-0.0508,-0.06,-0.063,-0.0662,-0.0712,-0.0693,-0.0729,-0.0713,-0.0728,-0.073,-0.0731,-0.0731,-0.0731,-0.0724,-0.0725,-0.0725,0,-0.0138,-0.0148,-0.0174,-0.0177,-0.017,-0.0207,-0.0208,-0.0262,-0.0338,-0.0375,-0.0437,-0.0554,-0.0605,-0.065,-0.0693,-0.0719,-0.0725,-0.0687,-0.0733,-0.0734,-0.0734,-0.0733,-0.0733,-0.0727,-0.0726,-0.0726,-0.0726,0,-0.0139,-0.0136,-0.0137,-0.0147,-0.015,-0.0147,-0.0203,-0.0239,-0.0311,-0.0365,-0.0462,-0.0562,-0.0616,-0.0656,-0.071,-0.0728,-0.0731,-0.0744,-0.071,-0.0739,-0.0737,-0.0737,-0.0729,-0.0729,-0.0728,-0.0728,0,0,-0.0128,-0.0138,-0.0138,-0.0116,-0.0122,-0.0113,-0.0167,-0.0215,-0.0224,-0.0356,-0.0396,-0.054,-0.0575,-0.061,-0.0664,-0.0694,-0.0736,-0.0729,-0.0729,-0.0715,-0.0767,-0.0708,-0.0702,-0.077,-0.077,-0.077,-0.0768,0,-0.0125,-0.0106,-0.0128,-0.0087,-0.0062,-0.0083,-0.011,-0.0152,-0.0235,-0.028,-0.0405,-0.0472,-0.0565,-0.0603,-0.065,-0.0709,-0.0735,-0.0734,-0.0749,-0.0748,-0.0682,-0.0699,-0.068,-0.0671,-0.0768,-0.0768,-0.0768,0,-0.013,-0.0102,-0.0074,-0.0026,-0.0019,-0.0011,-0.0003,-0.0042,-0.0118,-0.0194,-0.0275,-0.0359,-0.0438,-0.0521,-0.0621,-0.0624,-0.0692,-0.0743,-0.0744,-0.0664,-0.0688,-0.0656,-0.0667,-0.0767,-0.0767,-0.0767,-0.0767,0,-0.0087,-0.0063,-0.0029,-0.0,0.0037,0.0023,0.0022,-0.0021,-0.0045,-0.0133,-0.015,-0.0259,-0.0323,-0.0427,-0.0566,-0.0601,-0.0656,-0.0709,-0.0708,-0.0705,-0.0671,-0.0663,-0.0757,-0.0757,-0.0757,-0.0757,-0.0757,0,-0.0049,-0.0018,-0.0005,0.0042,0.0091,0.0079,0.0098,0.0069,0.0033,0.0054,-0.0097,-0.008,-0.0311,-0.0382,-0.051,-0.0593,-0.0612,-0.0684,-0.0695,-0.0684,-0.0679,-0.0743,-0.0741,-0.0757,-0.0757,-0.0757,-0.0757,0,-0.0016,-0.0008,0.0052,0.0097,0.0108,0.0138,0.0154,0.0177,0.0125,0.0146,0.0117,0.0034,-0.0043,-0.0236,-0.0383,-0.05,-0.0594,-0.0616,-0.0581,-0.0586,-0.0649,-0.0649,-0.0614,-0.0612,-0.061,-0.0609,-0.0607,0,0.0002,0.0032,0.0104,0.0134,0.0141,0.0179,0.021,0.0203,0.0233,0.0258,0.0291,0.0218,0.0245,0.0053,-0.0204,-0.0398,-0.0477,-0.0508,-0.0564,-0.0617,-0.0632,-0.0635,-0.0638,-0.0551,-0.055,-0.0548,-0.0547,0,0.0047,0.0055,0.0105,0.0185,0.0224,0.0297,0.0335,0.0401,0.0418,0.0502,0.0643,0.0685,0.0466,0.0288,-0.0044,-0.0181,-0.0483,-0.0481,-0.0546,-0.0576,-0.0553,-0.0569,-0.0575,-0.0535,-0.0536,-0.0537,-0.0538,-0.0538,0.0062,0.0106,0.0164,0.0238,0.0299,0.0411,0.0503,0.0604,0.0765,0.09,0.0928,0.0996,0.0685,0.0318,0.0037,-0.032,-0.0318,-0.0456,-0.0462,-0.047,-0.0448,-0.0422,-0.0375,-0.0375,-0.0375,-0.0376,-0.0376,0,0.0115,0.016,0.0219,0.0335,0.043,0.045,0.0599,0.0727,0.0995,0.1099,0.1249,0.1035,0.0815,0.0442,-0.0064,-0.0327,-0.0397,-0.0414,-0.0472,-0.048,-0.0488,-0.0472,-0.0403,-0.0404,-0.0405,-0.0406,0,0,0.0145,0.0219,0.0263,0.0435,0.0518,0.068,0.0794,0.1013,0.113,0.1329,0.1358,0.1326,0.0904,0.0536,0.0145,-0.0141,-0.0246,-0.0186,-0.0133,-0.0164,-0.0169,-0.0477,-0.0455,0,0,0,0,0]}],[{"header":{"parameterUnit":"m.s-1","parameterCategory":2,"la1":30.2991,"la2":30.254,"lo1":-89.0895,"lo2":-89.0444,"dy":0.0017,"dx":0.0017,"nx":28,"ny":28,"refTime":"2025-05-30T09:00:00:Z","depth":"4","parameterNumber":2,"parameterNumberName":"U-component_of_CURRENTS"},"data":[0,0,0,0,0,0,0,0,0,0,0,0,0,0,0,0,0,0,0,0,0,0,0,0,0,0,0,0,0,0,0,0,0,0,0,0,0,0,0,0,0,0,0,0,0,0,0,0,0,0,0,0,0,0,0,0,0,0,0.0941,0.0942,0,0.0984,0.0984,0.0984,0.1004,0.1005,0.1006,0.1006,0.0912,0.0909,0.0906,0,0,0,0,0,0,0,0,0,0,0,0,0,0.079,0.0792,0.0941,0.0942,0.0943,0.0984,0.0984,0.0984,0.1004,0.1005,0.1006,0.1006,0.0913,0.091,0.0906,0,0,0,0,0,0,0,0,0,0,0,0,0,0.084,0.0793,0.0941,0.0964,0.0967,0.0984,0.0984,0.0984,0.1004,0.1005,0.1006,0.1007,0.0914,0.091,0.0905,0.0858,0,0,0.0891,0.0889,0,0,0,0,0,0,0,0,0.0837,0.0844,0.0959,0.0962,0.0966,0.0996,0.0897,0.0937,0.1004,0.0982,0.1006,0.1007,0.0931,0.0925,0.0923,0.0853,0.0849,0.0891,0.0888,0.0886,0.0885,0,0,0,0,0,0,0,0.0834,0.0842,0.0951,0.0961,0.0965,0.0943,0.0951,0.0904,0.0943,0.0984,0.0988,0.1003,0.0931,0.0928,0.0921,0.0848,0.0891,0.0887,0.0884,0.0882,0.0863,0.0865,0,0,0,0,0,0,0.0847,0.084,0.095,0.0953,0.091,0.0945,0.0954,0.0979,0.0946,0.0946,0.1003,0.1004,0.0935,0.0926,0.0917,0.0953,0.0886,0.0882,0.0879,0.0861,0.0864,0.0866,0,0,0,0,0,0,0.0843,0.0856,0.0948,0.0902,0.0913,0.0948,0.0976,0.098,0.1005,0.0963,0.0958,0.1028,0.0936,0.0924,0.0909,0.0946,0.088,0.0875,0.0858,0.0862,0.0865,0.0963,0,0,0,0,0,0,0.0839,0.0855,0.0883,0.0903,0.0917,0.0967,0.0976,0.098,0.1015,0.1018,0.0982,0.0973,0.0935,0.0916,0.0904,0.0938,0.0872,0.0855,0.086,0.0864,0.0957,0.097,0.098,0,0,0,0,0,0.0833,0.086,0.0884,0.0898,0.0952,0.0968,0.0971,0.0994,0.1016,0.102,0.1013,0.0976,0.0936,0.0913,0.0899,0.0933,0.0853,0.0858,0.0863,0.0952,0.0967,0.098,0,0,0,0,0,0,0.0815,0.0866,0.0892,0.0937,0.096,0.0975,0.0992,0.101,0.101,0.102,0.0983,0.0972,0.0981,0.0943,0.092,0.0946,0.0896,0.0899,0.0969,0.0982,0.0994,0.1006,0.0868,0,0,0,0,0,0.0826,0.0856,0.0897,0.0934,0.0952,0.0979,0.0994,0.101,0.1015,0.102,0.1005,0.0994,0.0986,0.0974,0.0953,0.0945,0.0948,0.0968,0.0979,0.0989,0.0994,0.104,0.1056,0.0883,0.0883,0.0883,0,0,0.0827,0.0863,0.088,0.0931,0.0955,0.0972,0.0989,0.102,0.1038,0.1003,0.1026,0.1026,0.0996,0.1005,0.1006,0.0978,0.1046,0.0996,0.1004,0.1003,0.1047,0.1064,0.1079,0.0886,0.0886,0.0885,0,0,0.0821,0.0883,0.0894,0.0919,0.0966,0.0984,0.1001,0.1034,0.1059,0.1073,0.1076,0.1108,0.107,0.1082,0.1074,0.1135,0.1109,0.1133,0.1191,0.1237,0.1251,0.1264,0.1313,0.1329,0.1135,0.1135,0.1135,0,0.083,0.0854,0.0897,0.0915,0.0943,0.0993,0.1006,0.1034,0.1061,0.1091,0.109,0.1138,0.1111,0.1156,0.1184,0.1161,0.1181,0.1136,0.1252,0.1264,0.1275,0.1322,0.1338,0.114,0.114,0.1139,0.1139,0,0.0809,0.085,0.0863,0.0907,0.0935,0.0961,0.1011,0.1053,0.1098,0.1132,0.1207,0.1213,0.125,0.1257,0.1226,0.1309,0.1298,0.1265,0.1215,0.1299,0.1343,0.1358,0.1148,0.1146,0.1145,0.1143,0,0,0.078,0.0838,0.0846,0.0876,0.094,0.0963,0.1015,0.1077,0.1143,0.1194,0.1274,0.1306,0.136,0.1359,0.1369,0.1403,0.1504,0.1369,0.1369,0.1415,0.1618,0.1508,0.1513,0.1491,0.1494,0.1496,0.1624,0,0.0758,0.0784,0.082,0.0862,0.0886,0.0962,0.1014,0.1085,0.1157,0.1247,0.1317,0.1391,0.1386,0.1435,0.1478,0.1493,0.1546,0.1473,0.153,0.1533,0.1422,0.1527,0.1505,0.1636,0.1639,0.1642,0.1643,0,0.0713,0.0748,0.0773,0.0868,0.089,0.0929,0.1051,0.111,0.1244,0.1307,0.1419,0.1476,0.1578,0.1549,0.1662,0.1617,0.1633,0.1639,0.1644,0.1512,0.145,0.1528,0.1671,0.1669,0.1667,0.1665,0.1663,0,0.065,0.0719,0.0744,0.0772,0.0877,0.0926,0.1004,0.1133,0.1204,0.1371,0.1441,0.1577,0.1653,0.1711,0.1751,0.1716,0.1847,0.1798,0.1726,0.1719,0.1732,0.1717,0.1878,0.1878,0.1877,0.1877,0.1877,0,0.0607,0.0634,0.0728,0.0747,0.0819,0.0912,0.1014,0.1117,0.126,0.135,0.149,0.1576,0.1693,0.1778,0.1799,0.1823,0.1904,0.1761,0.175,0.1774,0.1762,0.1744,0.1727,0.1882,0.1881,0.188,0.1879,0,0.0526,0.0584,0.0623,0.0738,0.0787,0.0845,0.1003,0.1073,0.1235,0.1357,0.1415,0.1593,0.1707,0.1807,0.1901,0.1872,0.1907,0.1889,0.1941,0.1927,0.1738,0.1725,0.1831,0.1829,0.1826,0.1825,0.1823,0,0.0484,0.0491,0.0599,0.0633,0.069,0.0796,0.0866,0.1041,0.1115,0.1348,0.1388,0.1561,0.1662,0.1746,0.1837,0.1916,0.188,0.1909,0.1796,0.1758,0.1737,0.1727,0.1717,0.1819,0.1819,0.1818,0.1818,0,0.0397,0.0434,0.047,0.0537,0.0607,0.0689,0.081,0.0857,0.106,0.1204,0.1349,0.1455,0.1576,0.1677,0.1758,0.1795,0.1898,0.1884,0.1887,0.1782,0.1744,0.1724,0.1717,0.181,0.1811,0.1812,0.1812,0,0.0327,0.0328,0.0371,0.0435,0.0503,0.0564,0.0653,0.0767,0.0876,0.1143,0.1181,0.1383,0.1541,0.1615,0.1685,0.1728,0.169,0.1644,0.1659,0.1669,0.1556,0.148,0.1479,0,0,0,0,0,0.0253,0.0249,0.0274,0.0336,0.0393,0.0454,0.0598,0.0694,0.089,0.0956,0.1077,0.1196,0.1344,0.145,0.146,0.1587,0.1672,0.1592,0.1618,0.1766,0.1775,0.1656,0,0,0,0,0,0,0.0202,0.0208,0.0229,0.0229,0.0262,0.0331,0.0425,0.0568,0.0633,0.0844,0.093,0.1107,0.1257,0.1308,0.1424,0.1457,0.145,0.1721,0.1718,0.1761,0.1769,0.1776,0.1657,0,0,0,0,0]},{"header":{"parameterUnit":"m.s-1","parameterCategory":2,"la1":30.2991,"la2":30.254,"lo1":-89.0895,"lo2":-89.0444,"dy":0.0017,"dx":0.0017,"nx":28,"ny":28,"refTime":"2025-05-30T09:00:00:Z","depth":"4","parameterNumber":3,"parameterNumberName":"V-component_of_CURRENTS"},"data":[0,0,0,0,0,0,0,0,0,0,0,0,0,0,0,0,0,0,0,0,0,0,0,0,0,0,0,0,0,0,0,0,0,0,0,0,0,0,0,0,0,0,0,0,0,0,0,0,0,0,0,0,0,0,0,0,0,0,0.0055,0.0054,0,-0.001,-0.0011,-0.0011,-0.0038,-0.0038,-0.0038,-0.0038,0.0005,0.0007,0.0008,0,0,0,0,0,0,0,0,0,0,0,0,0,0.0206,0.0203,0.0055,0.0054,0.0053,-0.001,-0.0011,-0.0011,-0.0038,-0.0038,-0.0038,-0.0038,0.0005,0.0006,0.0008,0,0,0,0,0,0,0,0,0,0,0,0,0,0.0145,0.0202,0.0055,0.0029,0.0025,-0.001,-0.0011,-0.0011,-0.0037,-0.0038,-0.0038,-0.0039,0.0004,0.0006,0.0008,0.0029,0,0,0.0015,0.0016,0,0,0,0,0,0,0,0,0.0148,0.014,0.0034,0.003,0.0026,-0.002,0.0058,0.0006,-0.0037,-0.0009,-0.0038,-0.0039,0.0004,0.0006,-0.0,0.0031,0.0033,0.0015,0.0016,0.0017,0.0018,0,0,0,0,0,0,0,0.0152,0.0142,0.0034,0.0032,0.0028,0.0036,0.0027,0.0048,0.0006,-0.0011,-0.0015,-0.0029,0.0004,-0.0002,0.0001,0.0034,0.0015,0.0017,0.0018,0.0019,0.0103,0.0104,0,0,0,0,0,0,0.0148,0.0146,0.0036,0.0031,0.0082,0.0033,0.0023,-0.0001,0.0003,0.0002,-0.0029,-0.003,-0.0006,-0.0002,0.0002,0.0075,0.0017,0.0019,0.002,0.0102,0.0103,0.0104,0,0,0,0,0,0,0.0152,0.0139,0.0038,0.0085,0.0072,0.003,0.0004,-0.0002,-0.0013,-0.0012,-0.0011,-0.0034,-0.0006,-0.0001,0.0034,0.0075,0.002,0.0022,0.0101,0.0102,0.0104,0.019,0,0,0,0,0,0,0.0156,0.014,0.0132,0.0084,0.0069,0.0033,0.0003,-0.0003,-0.0023,-0.0025,-0.0015,-0.0012,-0.0006,0.0031,0.0036,0.0077,0.0024,0.0099,0.0101,0.0103,0.0186,0.0194,0.0201,0,0,0,0,0,0.0162,0.0149,0.0131,0.0118,0.0054,0.0033,0.0028,0.0001,-0.0023,-0.0013,-0.0008,-0.0013,0.0045,0.0034,0.0039,0.0082,0.0099,0.0101,0.0103,0.0183,0.0193,0.0201,0,0,0,0,0,0,0.0198,0.0143,0.0123,0.009,0.007,0.0027,0.0027,0.0001,0.0008,0.0007,0.0005,0.0011,0.0055,0.005,0.0036,0.0107,0.0069,0.0073,0.0128,0.0137,0.0145,0.0156,0.0025,0,0,0,0,0,0.0202,0.0189,0.0137,0.0117,0.0105,0.0066,0.0053,0.0033,0.0024,0.0023,0.0031,0.0041,0.0068,0.0087,0.0105,0.0148,0.0109,0.0175,0.0182,0.0189,0.02,0.0155,0.0159,0.0111,0.0111,0.0111,0,0,0.0209,0.0179,0.0169,0.0127,0.0106,0.0123,0.0059,0.0044,0.0073,0.0032,0.0081,0.007,0.0083,0.0134,0.0153,0.0137,0.0184,0.0192,0.0198,0.0206,0.0157,0.0162,0.0166,0.0113,0.0112,0.0112,0,0,0.0244,0.019,0.0207,0.0201,0.0174,0.0155,0.0152,0.0117,0.0118,0.0152,0.0132,0.0139,0.0183,0.0196,0.021,0.0267,0.0222,0.0272,0.0332,0.0287,0.0291,0.0293,0.0256,0.0254,0.028,0.0281,0.0281,0,0.0253,0.0266,0.0211,0.0239,0.0245,0.0178,0.0215,0.0211,0.0199,0.0207,0.0186,0.0214,0.0218,0.0273,0.0295,0.0289,0.025,0.03,0.0297,0.0299,0.03,0.026,0.0258,0.0285,0.0285,0.0284,0.0284,0,0.0318,0.0334,0.0342,0.0363,0.0364,0.0376,0.036,0.0365,0.0347,0.0337,0.0363,0.0348,0.036,0.0364,0.0357,0.0377,0.0342,0.0308,0.0275,0.031,0.0266,0.0262,0.0291,0.029,0.0289,0.0287,0,0,0.0326,0.0378,0.0386,0.0423,0.0428,0.0431,0.0481,0.0496,0.0513,0.0502,0.0525,0.0551,0.0498,0.0508,0.0477,0.0445,0.0421,0.0388,0.0384,0.0353,0.0322,0.0265,0.0253,0.0378,0.0377,0.0377,0.029,0,0.0397,0.0483,0.0492,0.0578,0.0615,0.059,0.0641,0.0645,0.063,0.0635,0.0597,0.0613,0.0569,0.0562,0.0526,0.044,0.0412,0.0448,0.029,0.0286,0.0232,0.0247,0.0376,0.0286,0.0285,0.0284,0.0283,0,0.0469,0.0516,0.0617,0.0683,0.0695,0.0745,0.0775,0.0812,0.0802,0.0786,0.0767,0.0717,0.069,0.0629,0.0513,0.0533,0.0447,0.0372,0.0366,0.028,0.022,0.024,0.0274,0.0275,0.0275,0.0276,0.0277,0,0.0509,0.0602,0.0687,0.0712,0.0777,0.0821,0.0853,0.0861,0.0886,0.0874,0.0865,0.0809,0.0776,0.066,0.0509,0.0508,0.035,0.0326,0.02,0.0195,0.0234,0.0232,0.025,0.025,0.025,0.025,0.025,0,0.0575,0.0641,0.0717,0.0763,0.0851,0.088,0.0953,0.0965,0.0981,0.0999,0.0945,0.0921,0.0777,0.0663,0.0527,0.0342,0.0363,0.0215,0.0169,0.0274,0.0277,0.0231,0.023,0.0247,0.0248,0.0248,0.0249,0,0.0602,0.0663,0.0752,0.0841,0.0878,0.0935,0.1021,0.1052,0.1071,0.1085,0.1086,0.1004,0.0851,0.0687,0.0486,0.0367,0.0194,0.0128,0.0258,0.0219,0.0069,0.0074,-0.0011,-0.0014,-0.0016,-0.0018,-0.002,0,0.0622,0.0677,0.0792,0.0845,0.0894,0.0985,0.1039,0.1092,0.1121,0.1119,0.1117,0.1003,0.0915,0.0597,0.0427,0.0164,0.0126,0.0046,0.0062,0.0079,0.0042,0.0051,0.0058,-0.0024,-0.0024,-0.0025,-0.0025,0,0.0637,0.068,0.0739,0.0847,0.0927,0.1015,0.1101,0.1122,0.1163,0.119,0.1113,0.0964,0.079,0.0567,0.0364,0.0177,0.0098,0.0021,0.0025,0.004,0.0063,0.0031,0.0041,-0.0033,-0.0032,-0.0032,-0.0031,0,0.0623,0.0656,0.0732,0.0824,0.0922,0.1001,0.1059,0.109,0.1123,0.1128,0.1096,0.0929,0.0854,0.0572,0.0379,0.0189,0.0146,0.0088,0.0088,0.0095,0.0145,0.0191,0.0098,0,0,0,0,0,0.0597,0.0631,0.0705,0.0799,0.0892,0.0961,0.1069,0.1117,0.1162,0.1103,0.1102,0.0935,0.0654,0.0551,0.0348,0.0326,0.0108,0.0081,0.004,-0.0078,-0.0069,-0.0035,0,0,0,0,0,0,0.0579,0.0635,0.0676,0.0749,0.0815,0.0917,0.099,0.1034,0.1012,0.1037,0.0895,0.0866,0.0601,0.0756,0.0334,0.0283,0.0224,-0.0027,-0.0032,-0.0084,-0.0075,-0.0068,-0.0029,0,0,0,0,0]}]]